Location: Roland
(31.1349°N, 85.4372°W)
Time: 04:19:17
(UTC+00:00)

Vanguard 2 Rocket - Pass Details

Date: 07 December 2021
Orbit: 554 x 3324 km, 32.9° (Epoch: 16 January)

Event Time Altitude Azimuth Distance (km) Brightness Sun altitude
Rises 23:11:44 0° 262° (W) 2,915 11.4 -7.2°
Reaches altitude 10° 23:13:40 10° 264° (W) 2,144 10.3 -7.5°
Maximum altitude 23:18:31 83° 351° (N) 922 6.9 -8.5°
Enters shadow 23:26:20 11° 80° (E) 3,391 9.2 -10.1°
